Location: Ocean City
(38.3360°N, 75.0850°W)
Time: 15:19:51
(UTC-05:00)

deb Explorer IX - Pass Details

Date: 19 November 2019
Orbit: 545 x 1105 km, 38.8° (Epoch: 05 December)

Event Time Altitude Azimuth Distance (km) Brightness Sun altitude
Exits shadow 05:52:13 13° 272° (W) 1,966 ? -10.7°
Maximum altitude 05:56:16 39° 207° (SSW) 970 ? -9.9°
Drops below altitude 10° 06:00:24 10° 138° (SE) 1,926 ? -9.2°
Sets 06:02:39 0° 131° (SE) 2,772 ? -8.7°
